GFSNIL_sfc_wetblb_021.txt.gz
Wetbulb
31.37 31.46 31.88 32.10 32.90 32.95 33.15 33.94 34.28 34.13 34.36 35.02 36.16 37.76 37.82 35.65 34.60 34.21 35.17 36.03 36.37 36.73
30.14 29.48 28.94 28.89 29.61 30.49 30.92 32.53 33.01 33.01 32.68 33.14 33.40 33.81 34.71 34.01 33.12 33.04 33.21 34.21 34.70 35.56
30.23 29.84 29.09 28.47 27.57 27.91 29.33 29.58 29.57 30.65 31.30 31.78 31.96 31.97 32.13 31.76 32.19 31.71 32.05 32.75 32.13 33.70
30.57 29.29 28.47 26.84 27.10 27.10 27.35 28.10 28.96 29.15 28.71 29.08 29.64 30.74 30.72 30.77 31.12 30.97 31.99 31.85 31.22 31.93
29.85 29.23 27.61 27.31 26.89 26.21 25.77 26.68 27.08 28.22 28.07 28.10 28.40 28.75 28.82 29.54 30.10 30.40 30.72 31.96 31.15 31.43
26.98 26.86 27.44 27.17 27.49 27.06 27.17 26.55 25.99 26.40 26.13 26.85 27.36 27.83 28.04 27.98 28.80 29.61 30.34 31.74 31.33 31.48
24.72 25.88 26.40 25.73 25.22 25.16 26.35 25.60 25.55 25.74 25.54 26.09 26.52 27.10 27.37 27.90 28.30 28.68 29.65 30.20 30.72 31.76
25.06 25.66 25.50 24.84 24.72 24.15 24.29 24.83 24.71 24.70 24.93 25.20 25.33 26.20 25.10 26.53 27.35 28.11 28.78 29.64 30.26 30.56
24.82 25.13 24.82 24.94 25.08 25.05 24.76 24.22 23.77 23.47 22.92 22.17 24.07 27.67 29.09 28.66 26.33 27.25 27.48 27.72 29.26 30.00
22.69 22.78 23.28 23.45 23.10 22.53 21.91 22.06 21.40 21.58 22.04 21.81 22.28 26.39 27.26 27.49 25.47 25.07 25.60 26.61 27.45 28.36
20.79 19.15 19.53 18.98 18.20 18.19 18.41 17.99 18.25 18.83 19.71 20.16 21.38 25.39 25.91 25.93 23.53 23.04 23.60 24.23 25.11 26.23
16.37 14.33 14.08 12.18 12.58 13.45 13.22 12.99 12.91 14.60 14.52 14.93 15.98 21.04 22.17 22.34 21.07 20.93 20.43 21.77 22.54 23.35
13.53 10.32 9.52 9.66 8.55 9.21 8.94 9.92 10.49 9.91 10.43 10.63 9.91 15.64 17.69 18.31 16.26 15.62 17.17 18.68 20.58 22.98
9.87 7.53 6.79 6.54 6.83 5.86 5.15 6.31 4.83 5.75 6.74 7.28 8.74 9.60 15.40 17.43 15.71 15.30 15.33 16.01 17.34 20.18

GFSNIL_sfc_wetblb_024.txt.gz
Wetbulb
28.86 28.31 28.54 28.38 28.58 28.62 28.82 29.55 30.58 30.89 31.17 31.45 32.46 32.97 33.37 33.48 33.57 34.04 35.43 35.80 36.60 37.76
28.45 27.42 26.75 26.66 26.86 27.16 27.84 29.40 28.72 28.85 28.84 29.41 30.03 30.21 30.72 30.67 30.49 30.69 31.29 31.93 32.59 33.53
28.22 27.93 27.23 26.58 25.58 25.46 25.87 26.54 26.85 27.10 27.98 28.21 27.85 27.54 27.66 28.21 29.33 29.49 30.23 31.53 30.66 30.88
27.89 28.24 27.61 26.61 26.59 26.47 25.67 25.67 26.20 26.34 26.65 26.50 26.66 27.00 26.21 25.99 26.73 27.24 28.29 29.22 29.55 29.88
27.11 26.18 25.44 26.01 26.17 25.50 26.53 27.50 25.38 25.76 25.41 25.71 25.63 26.14 25.87 25.70 25.57 25.34 26.19 27.56 28.44 28.78
25.25 24.46 24.18 24.83 25.27 25.18 25.17 25.78 25.25 25.17 24.49 24.64 24.71 24.83 25.40 25.65 25.83 26.10 26.61 27.09 27.37 27.93
23.86 23.80 23.51 23.90 23.76 23.66 23.92 23.65 23.85 23.87 24.08 24.56 24.43 24.44 24.43 24.43 24.60 25.11 26.54 27.36 27.83 28.20
24.28 24.01 23.48 23.11 23.35 23.57 23.83 23.70 23.38 22.90 22.72 22.85 23.48 24.06 23.72 24.47 24.17 24.14 24.44 25.42 26.58 27.92
22.61 22.48 22.42 22.41 22.18 21.56 20.90 20.35 20.25 19.96 19.79 19.51 21.90 25.16 26.41 26.14 24.06 24.08 23.51 22.98 24.10 25.12
19.63 19.36 19.62 18.57 17.79 16.98 16.20 16.53 16.09 16.33 16.68 16.53 17.39 21.90 23.33 23.92 22.37 21.91 21.66 22.14 22.70 23.10
17.42 14.99 15.23 14.42 13.46 13.26 13.39 12.78 12.54 12.54 12.53 12.60 14.41 18.73 19.54 19.76 17.86 17.35 17.94 19.08 20.74 21.65
13.64 10.82 11.54 9.01 9.55 10.15 9.49 9.00 8.48 10.12 9.28 8.27 8.87 14.64 16.53 17.10 14.46 14.78 14.98 16.85 17.43 17.99
11.83 6.45 7.35 7.88 6.87 7.54 6.84 7.85 8.13 7.40 7.30 6.91 5.83 12.04 14.69 15.77 13.16 11.35 12.79 14.45 16.50 19.07
9.01 6.44 5.65 5.28 5.86 4.79 3.96 5.17 3.30 4.00 4.79 5.23 6.53 7.12 13.86 16.14 14.06 12.80 11.54 11.92 13.24 15.48

GFSNIL_sfc_wetblb_030.txt.gz
Wetbulb
25.26 24.63 24.40 24.09 23.85 23.72 23.82 24.28 24.77 24.43 24.54 24.70 25.15 25.05 25.00 25.16 24.87 24.94 25.38 25.32 26.72 29.48
24.61 24.16 23.20 22.97 23.45 23.30 23.89 25.84 24.46 24.10 23.72 23.87 24.21 24.51 23.96 23.41 23.30 23.54 24.31 24.44 25.64 26.12
24.13 23.75 23.37 23.58 23.33 23.30 23.92 24.48 24.48 24.08 23.69 23.41 23.46 23.18 22.81 22.68 23.04 22.59 22.90 24.00 23.40 24.24
24.40 23.73 23.78 23.54 23.14 23.18 23.31 23.50 23.81 24.09 23.60 23.22 22.77 22.61 21.60 21.48 22.04 21.73 22.09 22.39 22.71 23.40
24.52 24.23 23.32 22.71 22.93 23.21 22.90 23.48 23.36 23.54 22.82 22.35 22.21 22.09 21.48 21.04 21.29 21.05 21.17 21.80 22.24 22.42
24.17 23.19 22.56 22.39 22.69 22.81 22.22 21.63 21.55 20.91 20.00 19.99 20.25 20.25 20.41 20.67 21.23 21.53 21.83 22.13 22.05 22.28
23.11 22.55 21.66 21.79 21.36 20.45 20.07 18.73 18.13 18.19 18.19 18.26 18.30 18.75 19.77 20.34 19.80 19.57 20.26 20.92 21.38 21.81
22.63 21.48 20.64 19.33 18.39 17.86 17.76 17.33 16.96 16.53 16.15 16.42 16.77 19.42 18.74 18.99 18.67 18.31 18.20 18.73 19.23 19.86
20.39 19.87 18.08 17.36 16.71 16.33 15.69 14.71 14.60 14.11 13.46 12.77 15.59 18.62 20.40 20.54 18.06 17.42 16.44 15.57 16.51 17.19
16.80 15.85 15.26 14.75 14.25 13.43 12.29 12.43 11.69 11.56 11.54 10.90 11.52 17.28 19.67 19.91 17.20 16.21 15.59 14.94 14.94 15.44
14.91 12.73 12.76 11.79 10.74 10.55 10.41 9.70 9.31 9.34 8.98 9.63 10.88 16.27 17.71 18.58 16.31 14.61 14.34 14.35 14.48 14.37
12.38 9.55 9.77 5.91 7.19 8.06 7.49 7.19 6.02 8.86 6.60 6.06 6.71 13.44 16.47 16.72 14.50 13.95 13.43 14.29 14.64 14.73
11.31 5.64 4.73 7.07 5.35 5.70 3.13 7.12 7.36 7.02 6.08 5.49 4.23 11.04 14.81 16.22 14.40 11.90 12.68 13.46 14.74 17.62
9.05 4.96 4.14 2.86 3.68 0.72 0.57 4.15 0.96 2.59 3.26 3.31 4.85 5.72 14.14 17.07 15.70 14.12 13.59 14.64 15.16 16.10

GFSNIL_sfc_wetblb_033.txt.gz
Wetbulb
27.63 27.58 27.06 27.10 27.12 26.93 27.15 27.26 27.60 27.50 27.52 27.34 27.51 27.37 27.39 27.37 27.40 27.56 27.70 27.12 27.80 28.52
26.75 26.59 26.10 26.15 26.57 26.66 27.06 27.48 26.86 26.61 26.08 26.16 26.23 26.11 25.91 25.76 25.53 26.21 26.37 26.37 26.94 26.79
26.04 26.15 26.17 26.35 25.73 25.69 25.95 26.08 25.91 25.79 25.57 25.43 25.36 25.09 24.75 24.54 24.89 24.50 24.95 25.85 25.16 25.74
26.39 26.17 26.29 25.87 25.57 25.44 25.50 25.09 24.84 24.45 24.26 23.98 23.73 23.88 23.46 23.25 23.95 23.04 23.59 24.35 24.30 24.16
26.43 26.16 25.34 24.88 24.92 25.04 23.93 24.00 23.55 22.73 22.36 22.13 21.97 22.08 21.60 21.29 21.99 22.00 22.04 22.62 22.78 22.85
25.95 25.23 24.59 24.21 23.99 23.33 22.37 21.68 21.08 20.77 20.07 19.93 19.97 20.01 20.59 21.31 21.03 20.89 20.75 20.93 20.73 20.88
25.16 24.58 23.83 23.30 22.01 20.97 20.60 19.74 19.23 19.13 18.76 18.61 18.72 19.45 20.58 20.54 20.20 20.35 20.57 20.45 20.23 19.65
25.20 23.44 22.41 20.59 19.28 19.14 18.63 18.10 17.62 17.41 16.57 16.88 17.33 20.15 19.89 20.31 19.99 19.12 18.77 18.84 18.74 19.07
22.75 21.23 19.51 18.50 17.75 17.26 16.26 15.50 15.17 14.64 13.96 13.55 16.12 18.50 21.09 21.38 19.16 18.25 16.98 16.44 17.31 17.57
19.99 18.86 17.29 16.20 15.48 14.63 13.43 13.24 12.50 12.44 12.38 11.89 12.69 17.41 20.44 20.46 18.35 17.33 16.29 15.43 15.50 15.74
17.21 15.61 14.35 13.22 12.35 12.04 11.84 10.94 10.54 10.42 10.32 10.81 11.71 16.91 18.81 19.31 17.54 15.76 15.54 15.63 15.37 15.03
15.76 12.89 12.26 9.65 9.63 9.94 9.45 8.93 8.09 10.54 8.88 7.53 8.08 14.14 17.74 17.88 16.08 14.69 14.41 15.64 16.04 15.93
13.43 9.30 8.28 9.73 8.19 8.45 6.97 8.77 8.77 8.13 7.61 6.50 6.13 11.78 16.02 17.24 16.68 14.30 15.08 16.06 16.37 18.78
11.42 8.46 8.03 6.49 7.04 5.15 3.94 5.84 2.33 3.98 4.75 4.88 6.23 7.16 14.69 17.88 17.35 16.55 16.41 17.21 16.91 17.87